FW4096 Weather Reports


time (UTC)temp
C
wind
direction
speed
KPH
gust
KPH
rain 1hr
cm
rain 24hr
cm
rain mn
cm
humidity
%
barometer
mb
20260505073003 8 262 24.1 30.6 0.00 0.23 0.00 82 1005.9
20260505072503 8 261 24.1 30.6 0.00 0.23 0.00 82 1006.0
20260505072107 8 260 22.5 30.6 0.00 0.23 0.00 82 1005.9
20260505071503 8 255 22.5 27.4 0.00 0.23 0.00 81 1005.9
20260505071106 8 252 20.9 27.4 0.00 0.23 0.00 82 1006.0
20260505070606 8 251 22.5 27.4 0.00 0.23 0.00 81 1005.8
20260505070003 8 254 22.5 30.6 0.00 0.23 0.00 81 1005.8
20260505065606 8 256 22.5 30.6 0.00 0.23 0.00 81 1005.7
20260505065106 8 254 22.5 29.0 0.00 0.23 0.00 80 1005.6
20260505064503 9 251 22.5 29.0 0.00 0.23 0.00 80 1005.5
20260505064003 9 251 22.5 30.6 0.00 0.23 0.00 80 1005.5
20260505063606 9 251 22.5 30.6 0.00 0.23 0.00 79 1005.5
20260505063003 9 249 20.9 29.0 0.00 0.23 0.00 79 1005.4
20260505062503 9 245 20.9 27.4 0.00 0.23 0.00 79 1005.3
20260505062003 9 243 22.5 30.6 0.00 0.23 0.00 79 1005.2
20260505061503 9 242 20.9 30.6 0.00 0.23 0.00 78 1005.1
20260505061003 9 242 20.9 29.0 0.00 0.23 0.00 79 1005.1
20260505060606 9 242 20.9 29.0 0.00 0.23 0.00 79 1005.0
20260505060003 9 241 20.9 27.4 0.00 0.23 0.00 80 1005.1
20260505055503 9 240 20.9 27.4 0.00 0.23 0.00 80 1004.9
20260505055003 9 237 20.9 30.6 0.00 0.23 0.00 79 1005.0
20260505054606 9 236 20.9 30.6 0.00 0.23 0.00 79 1005.0
20260505054003 9 236 22.5 30.6 0.00 0.23 0.00 79 1004.9
20260505053504 9 237 22.5 30.6 0.00 0.23 0.00 79 1004.9
20260505053004 8 238 24.1 30.6 0.00 0.23 0.00 78 1004.8
20260505052504 8 238 24.1 33.8 0.00 0.23 0.00 78 1004.8
20260505052004 8 237 24.1 33.8 0.00 0.23 0.00 78 1004.7
20260505051504 8 236 24.1 33.8 0.00 0.23 0.00 78 1004.7
20260505051004 8 235 24.1 32.2 0.00 0.23 0.00 78 1004.7
20260505050504 8 235 24.1 33.8 0.00 0.23 0.00 77 1004.6
20260505041504 8 228 22.5 30.6 0.00 0.23 0.00 80 1004.5
20260505041003 8 225 22.5 33.8 0.00 0.23 0.00 82 1004.4
20260505040606 8 224 20.9 33.8 0.00 0.23 0.00 83 1004.5
20260505040004 8 223 17.7 27.4 0.00 0.23 0.00 85 1004.4
20260505035503 8 224 19.3 27.4 0.00 0.23 0.00 86 1004.6
20260505035004 8 224 19.3 25.7 0.00 0.23 0.00 86 1004.7
20260505034504 7 223 17.7 25.7 0.00 0.23 0.00 87 1004.6
20260505034106 7 221 17.7 22.5 0.00 0.23 0.00 87 1004.5
20260505033606 7 219 17.7 24.1 0.00 0.23 0.00 88 1004.5
20260505033003 7 219 19.3 25.7 0.00 0.23 0.00 88 1004.4
20260505032503 7 221 19.3 27.4 0.00 0.23 0.00 88 1004.4
20260505032003 7 220 17.7 29.0 0.00 0.23 0.00 88 1004.5
20260505031503 7 219 19.3 29.0 0.00 0.23 0.00 88 1004.6
20260505031003 7 218 19.3 27.4 0.00 0.23 0.00 89 1004.6
20260505030503 7 218 19.3 29.0 0.00 0.23 0.00 89 1004.5
20260505030003 7 219 19.3 29.0 0.00 0.23 0.00 90 1004.5
20260505025503 7 217 17.7 25.7 0.00 0.23 0.00 90 1004.5
20260505025004 7 217 17.7 29.0 0.00 0.23 0.00 89 1004.5
20260505024503 7 220 17.7 29.0 0.00 0.23 0.00 90 1004.6
20260505024003 7 214 16.1 25.7 0.00 0.23 0.00 89 1004.5
20260505023503 7 207 16.1 22.5 0.00 0.23 0.00 89 1004.4
20260505023106 7 213 16.1 24.1 0.00 0.23 0.00 89 1004.6
20260505022503 7 216 16.1 24.1 0.00 0.23 0.00 90 1004.7
20260505022003 7 213 14.5 24.1 0.00 0.23 0.00 89 1004.6
20260505021504 7 215 17.7 27.4 0.00 0.23 0.00 90 1004.7
20260505021003 7 219 17.7 27.4 0.00 0.23 0.00 90 1004.7
20260505020606 7 221 17.7 25.7 0.00 0.23 0.00 90 1004.7
20260505020004 7 224 19.3 27.4 0.00 0.23 0.00 90 1004.7
20260505015503 7 223 19.3 27.4 0.00 0.23 0.00 90 1004.8
20260505015106 7 221 19.3 30.6 0.00 0.23 0.00 90 1004.9
20260505014503 7 221 19.3 30.6 0.00 0.23 0.00 91 1004.8
20260505014004 7 220 16.1 24.1 0.00 0.23 0.00 91 1004.8
20260505013504 7 216 14.5 22.5 0.00 0.23 0.00 91 1004.7
20260505013003 7 215 14.5 19.3 0.00 0.23 0.00 91 1004.8
20260505012504 7 216 12.9 20.9 0.00 0.23 0.00 91 1004.8
20260505012004 7 216 12.9 25.7 0.00 0.23 0.00 91 1004.8
20260505011504 7 216 12.9 25.7 0.00 0.23 0.00 91 1004.8
20260505011004 7 220 14.5 24.1 0.00 0.23 0.00 91 1004.9
20260505010504 7 222 16.1 22.5 0.00 0.23 0.00 91 1004.9
20260505010004 7 223 14.5 22.5 0.00 0.23 0.00 91 1004.9
20260505005504 7 222 14.5 20.9 0.00 0.23 0.00 91 1004.9
20260505005004 7 222 14.5 20.9 0.00 0.23 0.00 91 1004.9
20260505004504 7 224 14.5 19.3 0.00 0.23 0.00 91 1004.9
20260505004004 7 225 14.5 20.9 0.00 0.23 0.00 92 1005.0
20260505003504 7 227 14.5 22.5 0.00 0.23 0.00 92 1004.9
20260505003004 7 226 14.5 22.5 0.00 0.23 0.00 92 1004.9
20260505002504 7 225 14.5 20.9 0.00 0.23 0.00 92 1004.8
20260505002004 7 223 16.1 20.9 0.00 0.23 0.00 92 1004.9
20260505001504 7 221 14.5 22.5 0.00 0.23 0.00 92 1004.9
20260505001004 7 221 12.9 22.5 0.00 0.23 0.00 92 1004.9
20260505000607 7 219 12.9 19.3 0.00 0.23 0.00 92 1004.8
20260505000004 7 217 11.3 17.7 0.00 0.23 0.00 92 1005.0
20260504235504 7 217 12.9 19.3 0.00 0.23 0.00 91 1004.9
20260504235004 7 221 12.9 20.9 0.00 0.23 0.00 91 1004.9
20260504234504 7 223 14.5 22.5 0.00 0.23 0.00 92 1004.9
20260504234107 7 222 14.5 24.1 0.00 0.23 0.00 92 1005.0
20260504233504 7 223 16.1 24.1 0.00 0.23 0.00 92 1004.9
20260504233003 7 224 16.1 22.5 0.00 0.23 0.00 92 1005.1
20260504232503 7 226 17.7 22.5 0.00 0.23 0.00 92 1005.0
20260504232003 7 227 17.7 22.5 0.00 0.23 0.00 92 1005.0
20260504231503 7 228 17.7 29.0 0.00 0.23 0.00 92 1005.1
20260504231106 7 229 17.7 29.0 0.00 0.23 0.00 92 1005.0
20260504230004 7 228 19.3 27.4 0.00 0.23 0.00 92 1005.0
20260504225503 7 227 19.3 27.4 0.00 0.23 0.00 92 1005.0
20260504225003 7 228 19.3 24.1 0.00 0.23 0.00 92 1005.1
20260504224503 7 229 19.3 29.0 0.00 0.23 0.00 92 1005.1
20260504224003 7 230 19.3 29.0 0.00 0.23 0.00 92 1005.1
20260504223504 7 230 19.3 27.4 0.00 0.23 0.00 92 1005.2
20260504223003 7 231 19.3 27.4 0.00 0.23 0.00 92 1005.1
20260504222606 7 232 19.3 25.7 0.00 0.23 0.00 92 1005.2
20260504222106 7 234 17.7 25.7 0.00 0.23 0.00 92 1005.3
20260504221504 7 235 17.7 25.7 0.00 0.23 0.00 92 1005.3
20260504221107 7 234 16.1 24.1 0.00 0.23 0.00 93 1005.3
20260504220503 7 233 17.7 24.1 0.00 0.23 0.00 92 1005.4
20260504220003 7 231 17.7 24.1 0.00 0.23 0.00 93 1005.4
20260504215503 7 227 16.1 24.1 0.00 0.23 0.23 93 1005.3
20260504215003 7 225 16.1 22.5 0.00 0.23 0.23 93 1005.3
20260504214503 7 226 16.1 22.5 0.00 0.23 0.23 93 1005.3
20260504214003 7 225 16.1 22.5 0.00 0.23 0.23 93 1005.3
20260504213503 7 220 14.5 22.5 0.00 0.23 0.23 93 1005.4
20260504213003 7 216 11.3 19.3 0.00 0.23 0.23 93 1005.2
20260504212503 7 218 11.3 19.3 0.00 0.23 0.23 93 1005.3
20260504212003 7 220 12.9 20.9 0.00 0.23 0.23 93 1005.4
20260504211503 7 216 12.9 20.9 0.00 0.23 0.23 93 1005.4
20260504211106 7 213 9.7 19.3 0.00 0.23 0.23 93 1005.5
20260504210503 7 220 12.9 19.3 0.00 0.23 0.23 93 1005.5
20260504210003 7 221 14.5 24.1 0.00 0.23 0.23 93 1005.5
20260504205503 7 221 12.9 24.1 0.00 0.23 0.23 93 1005.5
20260504205003 7 225 16.1 24.1 0.00 0.23 0.23 93 1005.6
20260504204503 7 231 17.7 24.1 0.00 0.23 0.23 93 1005.6
20260504204108 7 234 19.3 27.4 0.00 0.23 0.23 93 1005.6
20260504203607 7 236 19.3 27.4 0.00 0.23 0.23 93 1005.6
20260504203004 7 237 17.7 24.1 0.00 0.23 0.23 93 1005.8
20260504202504 7 233 16.1 24.1 0.00 0.23 0.23 93 1005.8
20260504202004 7 232 16.1 22.5 0.00 0.23 0.23 93 1005.9
20260504201607 7 235 16.1 22.5 0.00 0.23 0.23 92 1005.9
20260504201004 6 234 16.1 25.7 0.00 0.23 0.23 92 1005.8
20260504200504 6 233 17.7 25.7 0.00 0.23 0.23 92 1005.9
20260504200004 6 232 17.7 25.7 0.00 0.23 0.23 92 1005.9
20260504195504 6 234 17.7 25.7 0.00 0.23 0.23 92 1005.8
20260504195004 6 239 17.7 24.1 0.00 0.23 0.23 92 1005.8
20260504194607 6 238 17.7 24.1 0.00 0.23 0.23 92 1005.8
20260504194004 6 234 16.1 24.1 0.00 0.23 0.23 92 1005.7
20260504193504 7 227 12.9 19.3 0.00 0.23 0.23 92 1005.7
20260504193004 6 212 8.0 19.3 0.00 0.23 0.23 92 1005.7
20260504192607 6 182 4.8 11.3 0.00 0.23 0.23 92 1005.7
20260504192004 6 167 4.8 9.7 0.00 0.23 0.23 92 1005.5
20260504191503 6 165 4.8 9.7 0.00 0.23 0.23 92 1005.6
20260504191003 6 171 4.8 8.0 0.00 0.23 0.23 92 1005.6
20260504190504 6 186 3.2 8.0 0.00 0.23 0.23 92 1005.6
20260504190107 6 195 3.2 4.8 0.00 0.23 0.23 92 1005.5
20260504185504 6 203 3.2 4.8 0.00 0.23 0.23 92 1005.5
20260504185004 6 216 4.8 6.4 0.00 0.23 0.23 92 1005.5
20260504184607 6 225 4.8 6.4 0.00 0.23 0.23 92 1005.4
20260504184107 6 228 4.8 8.0 0.00 0.23 0.23 92 1005.4
20260504183503 6 226 4.8 8.0 0.00 0.23 0.23 92 1005.4
20260504183003 6 226 4.8 8.0 0.00 0.23 0.23 92 1005.4
20260504182503 6 227 3.2 8.0 0.00 0.23 0.23 92 1005.4
20260504182003 6 229 1.6 4.8 0.00 0.23 0.23 92 1005.4
20260504181503 6 230 3.2 6.4 0.00 0.23 0.23 92 1005.5
20260504181003 6 231 4.8 8.0 0.00 0.23 0.23 92 1005.4
20260504180503 6 237 4.8 11.3 0.00 0.23 0.23 91 1005.3
20260504180004 6 242 6.4 11.3 0.00 0.23 0.23 91 1005.3
20260504175006 6 246 8.0 14.5 0.00 0.23 0.23 91 1005.3
20260504174503 6 257 9.7 14.5 0.00 0.23 0.23 91 1005.2
20260504174003 6 268 9.7 16.1 0.00 0.23 0.23 91 1005.3
20260504173606 6 269 9.7 16.1 0.00 0.23 0.23 91 1005.3
20260504173003 6 262 9.7 14.5 0.00 0.23 0.23 91 1005.3
20260504172503 6 255 11.3 17.7 0.00 0.23 0.23 90 1005.4
20260504172003 6 262 12.9 19.3 0.00 0.23 0.23 90 1005.4
20260504171503 6 268 12.9 19.3 0.00 0.23 0.23 89 1005.4
20260504171003 6 266 9.7 17.7 0.00 0.23 0.23 89 1005.2
20260504170503 6 270 9.7 16.1 0.00 0.23 0.23 88 1005.3
20260504151107 7 257 9.7 12.9 0.00 0.23 0.23 87 1004.7
20260504150503 8 260 9.7 11.3 0.00 0.23 0.23 88 1004.8
20260504150107 7 263 8.0 11.3 0.00 0.23 0.23 87 1004.7
20260504141003 8 262 4.8 6.4 0.00 0.23 0.23 88 1004.1
20260504140503 8 269 4.8 9.7 0.00 0.23 0.23 88 1004.1
20260504140106 9 272 4.8 9.7 0.00 0.23 0.23 89 1004.2
20260504130503 7 14 4.8 8.0 0.03 0.23 0.23 91 1004.1
20260504110503 6 78 3.2 6.4 0.05 0.23 0.23 90 1004.0
20260504100606 7 17 4.8 8.0 0.08 0.15 0.15 89 1004.7
20260504082004 8 335 4.8 9.7 0.03 0.03 0.03 87 1005.7
20260504081504 8 351 4.8 12.9 0.03 0.03 0.03 87 1005.4
20260504081004 8 331 8.0 14.5 0.03 0.03 0.03 87 1005.2
20260504080504 8 307 8.0 14.5 0.03 0.03 0.03 86 1005.5